Simultaneous Nadir Overpasses (SNOs) Predictions

Prediction of SNOs between GOES-15 and METOP-B Satellite Orbit:

Table of predicted SNOs for the next 14.0 days since TLE Epoch: 6/8/2017
Index Date Time (GOES-15) GOES-15 Lat,Lon METOP-B Lat,Lon Distance(km) Time Diff (sec)
1 06/10/2017 06:44:55 0.14,-135.23 -0.47,-138.08 323.48 80
2 06/11/2017 06:21:34 0.15,-135.25 0.61,-133.07 247.73 80
3 06/12/2017 18:43:07 -0.14,-135.32 0.35,-137.65 264.60 80
4 06/13/2017 18:19:46 -0.15,-135.34 -0.73,-132.65 306.10 80
5 06/15/2017 06:41:26 0.14,-135.32 -0.29,-137.24 219.01 80
6 06/16/2017 06:18:06 0.16,-135.34 0.85,-132.26 351.44 80
7 06/17/2017 18:39:37 -0.14,-135.40 0.16,-136.82 161.71 80
8 06/18/2017 18:16:18 -0.16,-135.41 -0.98,-131.83 408.28 80
9 06/20/2017 06:37:56 0.14,-135.38 -0.10,-136.41 118.01 80
10 06/21/2017 06:14:37 0.15,-135.39 1.04,-131.42 451.53 80
11 06/22/2017 18:36:08 -0.14,-135.43 -0.03,-135.99 63.01 80




NCC Satellite Simultaneous Nadir Overpasses (SNOs) Prediction Service
